Back to catalog

STARLINK-4788

AliveCommunicationsVLEO
NORAD 53863·PAYLOAD·🇺🇸 United States

Launched Sep 19, 2022 from Cape Canaveral Space Force Station

Loading…

Next Passes (next 24 hours)

TLE

FreshSource: CelesTrak SupGP

Epoch: Sep 14, 2026, 14:55 UTC

1 53863C 22114AX  26257.62201389  .00036586  00000+0  11759-2 0  2577
2 53863  53.1562 145.9291 0001435  99.2741  80.0523 15.31699452    19

Track STARLINK-4788 in real time with AllMySat

Download on the App Store